Starlink 33737

operational
NORAD ID: 63456 Int'l Des: 2025-069 Owner: SPXS Country: US Constellation: starlink
LEOCIRCULAR

关于 Starlink 33737

正在加载描述...

实时位置

正在加载3D地球...

即将过境

高度历史

Altitude vs Time

uPlot chart will show altitude changes over time

两行轨道根数

1 63456U 25069Z 25308.59630637 .00030188 00000-0 10275-2 0 9990
2 63456 53.1604 3.4102 0001664 50.3112 309.8035 15.30190341 34141
Epoch: Nov 4, 2025 • Age: 7 hours

当前状态

高度 494.4 km
速度 7.62 km/s
星下点 -52.85°S, 88.75°W
发射日期 Apr 4, 2025
运行时间 0.5 years
类型 internet

技术详情

分类 Payload
质量 575.00 kg
干质量 530.00 kg
总质量 575.00 kg
长度 0.30 m
直径 4.10 m
跨度 29.00 m
形状 Box + pan
制造商 SPXS
平台类型 Starlink V2MO
阶段状态 In Orbit
所有者/国家 SPXS/US

大型星座

Loading constellations...